This demonstration page uses our WeatherBlox Daily Observations layout. Learn more.

Left ArrowRight Arrow

Hourly Observations for May 20, 2017

Temp ( °F °C ) Dew Point ( °F °C ) Humidity (%) Winds ( mph kmh ) Pressure ( in mb ) Visibility ( mi km ) Precip ( " mm )
12:18 am 00:18 Cloudy with Nearby Thunderstorms 63 17.2 61 16.1 93 93 W 10 17 29.91 1013 6 10 0.07 1.78
12:37 am 00:37 Cloudy with Light Rain 62 16.7 61 16.1 96 96 W 6 9 29.91 1013 7 11 0.10 2.54
12:52 am 00:52 Cloudy with Rain 63 17.2 61 16.1 93 93 W 7 11 29.92 1013 6 10 0.12 3.05
1:44 am 01:44 Cloudy with Nearby Thunderstorms 62 16.7 61 16.1 96 96 W 8 13 29.91 1013 4 6 0.18 4.57
1:52 am 01:52 Cloudy with Nearby Thunderstorms 62 16.7 60 15.6 93 93 W 7 11 29.88 1012 4 6 0.21 5.33
2:13 am 02:13 Cloudy with Rain 62 16.7 60 15.6 93 93 NW 6 9 29.88 1012 6 10 0.05 1.27
2:52 am 02:52 Cloudy with Rain 62 16.7 60 15.6 93 93 NNW 6 9 29.86 1011 7 11 0.12 3.05
3:52 am 03:52 Cloudy with Light Rain 62 16.7 61 16.1 96 96 SSE 5 7 29.87 1012 9 14 0.09 2.29
4:52 am 04:52 Cloudy with Rain 62 16.7 61 16.1 96 96 SSE 12 19 29.88 1012 7 11 0.10 2.54
5:52 am 05:52 Cloudy with Light Rain 62 16.7 60 15.6 93 93 SE 17 28 29.79 1009 10 16 0.15 3.81
6:52 am 06:52 Cloudy with Light Rain 62 16.7 59 15 90 90 ESE 20 31 29.75 1007 10 16 0.03 0.76
7:52 am 07:52 Partly Cloudy with Light Rain 62 16.7 60 15.6 93 93 SSW 13 20 29.83 1010 10 16 0.00 0.03
8:09 am 08:09 Mostly Sunny 62 16.7 60 15.6 93 93 SSW 12 19 29.85 1011 10 16 0.00 0.03
8:52 am 08:52 Mostly Sunny 62 16.7 60 15.6 93 93 S 13 20 29.87 1012 10 16 0.00 0.03
9:41 am 09:41 Mostly Cloudy 64 17.8 61 16.1 90 90 S 16 26 29.85 1011 10 16 0.00 0.00
9:52 am 09:52 Mostly Cloudy 65 18.3 61 16.1 87 87 S 16 26 29.87 1012 10 16 0.00 0.00
10:10 am 10:10 Partly Cloudy 65 18.3 62 16.7 90 90 S 17 28 29.85 1011 10 16 0.00 0.00
10:52 am 10:52 Mostly Cloudy 67 19.4 61 16.1 81 81 S 13 20 29.87 1012 10 16 0.00 0.00
11:48 am 11:48 Mostly Cloudy 70 21 63 17 78 78 S 15 24 29.88 1012 10 16 0.00 0.00
11:52 am 11:52 Mostly Cloudy 68 20 62 16.7 81 81 S 18 30 29.88 1012 10 16 0.00 0.00
12:52 pm 12:52 Cloudy 69 20.6 63 17.2 81 81 SSW 12 19 29.88 1012 10 16 0.00 0.00
1:52 pm 13:52 Cloudy 70 21.1 63 17.2 79 79 W 10 17 29.88 1012 10 16 0.00 0.00
1:59 pm 13:59 Cloudy 71 21.7 63 17.2 76 76 WSW 10 17 29.88 1012 10 16 0.00 0.00
2:22 pm 14:22 Cloudy 68 20 63 17.2 84 84 W 16 26 29.88 1012 10 16 0.00 0.00
2:52 pm 14:52 Cloudy 69 20.6 63 17.2 81 81 W 12 19 29.89 1012 10 16 0.00 0.00
3:10 pm 15:10 Cloudy 69 20.6 63 17.2 81 81 WSW 8 13 29.88 1012 10 16 0.00 0.00
3:17 pm 15:17 Cloudy 69 20.6 63 17.2 81 81 W 12 19 29.91 1013 10 16 0.00 0.00
3:27 pm 15:27 Cloudy 68 20 62 16.7 81 81 W 13 20 29.88 1012 10 16 0.00 0.00
3:40 pm 15:40 Cloudy 68 20 62 16.7 81 81 W 12 19 29.88 1012 10 16 0.00 0.00
3:52 pm 15:52 Cloudy 67 19.4 62 16.7 84 84 WNW 7 11 29.89 1012 10 16 0.00 0.00
4:00 pm 16:00 Cloudy 68 20 62 16.7 81 81 W 12 19 29.88 1012 10 16 0.00 0.00
4:23 pm 16:23 Cloudy 68 20 62 16.7 81 81 W 9 15 29.88 1012 10 16 0.00 0.00
4:45 pm 16:45 Cloudy 67 19.4 61 16.1 81 81 WSW 12 19 29.91 1013 10 16 0.00 0.00
4:52 pm 16:52 Cloudy 67 19.4 61 16.1 81 81 W 12 19 29.90 1013 10 16 0.00 0.00
5:52 pm 17:52 Cloudy 67 19.4 60 15.6 79 79 W 9 15 29.89 1012 10 16 0.00 0.00
6:52 pm 18:52 Cloudy 68 20 57 13.9 68 68 W 9 15 29.92 1013 10 16 0.00 0.00
7:52 pm 19:52 Partly Cloudy 66 18.9 56 13.3 70 70 W 6 9 29.95 1014 10 16 0.00 0.00
8:52 pm 20:52 Partly Cloudy 63 17.2 56 13.3 78 78 W 3 6 29.95 1014 10 16 0.00 0.00
9:52 pm 21:52 Mostly Clear 61 16.1 54 12.2 78 78 W 7 11 29.98 1015 10 16 0.00 0.00
10:52 pm 22:52 Partly Cloudy 59 15 52 11.1 78 78 WNW 8 13 30.02 1017 10 16 0.00 0.00
11:52 pm 23:52 Mostly Clear 57 13.9 50 10 78 78 WNW 5 7 30.03 1017 10 16 0.00 0.00

Powered by AerisWeather